Regional Weather Roundup
Issued by NWS San Angelo, TX

Home | Current Version | Previous Version | Text Only | Print | Product List | Glossary On
Versions: 1 2 3 4 5 6 7 8 9 10 11 12 13 14 15 16 17 18 19 20 21 22 23 24 25 26 27 28 29 30 31 32 33 34 35 36 37 38 39 40 41 42 43 44 45 46 47 48 49 50
000
ASUS44 KSJT 061811
RWRSJT
WEST CENTRAL TEXAS REGIONAL WEATHER ROUNDUP
NATIONAL WEATHER SERVICE SAN ANGELO TX
1200 PM CST SAT FEB 06 2016

NOTE: "FAIR" INDICATES FEW OR NO CLOUDS BELOW 12,000 FEET WITH NO
SIGNIFICANT WEATHER AND/OR OBSTRUCTIONS TO VISIBILITY.

TXZ049-054-064>066-071>073-076>078-098-099-113-114-127-128-139-140-
154-155-168>170-061900
...LOCATIONS ACROSS WEST CENTRAL TEXAS...

CITY           SKY/WX    TMP DP  RH WIND       PRES   REMARKS
SAN ANGELO     SUNNY     54  20  26 N16       30.45F
ABILENE        SUNNY     48  23  37 N16G24    30.44S
DYESS AFB      SUNNY     49  22  34 N18       30.43F
JUNCTION       SUNNY     54  17  23 NW22G29   30.43F
SWEETWATER     SUNNY     50  16  26 N14       30.45F
BROWNWOOD      SUNNY     52  19  28 NW22G31   30.42F
COLEMAN        CLEAR     51  20  30 N21       30.42F
SONORA         SUNNY     52  19  28 N10       30.49F
OZONA          FAIR      52  19  28 NW12      30.48F
BRADY          NOT AVBL
$$

TEXAS PANHANDLE/OKLAHOMA PANHANDLE

CITY           SKY/WX    TMP DP  RH WIND       PRES   REMARKS
AMARILLO       SUNNY     47  12  24 W8        30.38F
BORGER         SUNNY     46  14  27 SW8       30.37F
CANADIAN       SUNNY     47  18  31 W5        30.38F
DALHART        SUNNY     47  16  29 SW12      30.34F
DUMAS          CLEAR     45  15  29 SW13      30.35F WCI  39
GUYMON         NOT AVBL
HEREFORD       NOT AVBL
PAMPA          CLEAR     46  16  29 W9        30.37F
PERRYTON       SUNNY     47  19  33 W10G18    30.35F
$$

SOUTHERN PANHANDLE/SOUTH PLAINS/ROLLING PLAINS

CITY           SKY/WX    TMP DP  RH WIND       PRES   REMARKS
LUBBOCK        MOSUNNY   48  19  31 VRB5      30.40F
SNYDER           N/A     50  18  28 N10       30.44F
CHILDRESS      SUNNY     46  20  35 N6        30.42F
SEMINOLE       CLEAR     50  15  24 NW7       30.43F
$$

PERMIAN BASIN

CITY           SKY/WX    TMP DP  RH WIND       PRES   REMARKS
MIDLAND        SUNNY     50  20  30 SW8       30.44F
ODESSA         SUNNY     51  16  24 W12       30.44F
WINK           SUNNY     51  17  26 VRB5      30.44F
$$

FAR WEST/SOUTHWEST MOUNTAINS/TRANS PECOS

CITY           SKY/WX    TMP DP  RH WIND       PRES   REMARKS
ALPINE         CLEAR     53   7  16 SW8       30.50F
DRYDEN           N/A     58  16  19 SW9       30.43F
EL PASO        MOSUNNY   46   7  20 N8        30.47F
FORT STOCKTON  SUNNY     54  14  20 W7        30.45F
GUADALUPE PASS SUNNY     43   4  19 SW23      30.42F WCI  34
MARFA          SUNNY     49   4  16 W15       30.47F
PECOS          CLEAR     53  18  24 CALM      30.44F
$$

DALLAS/FORT WORTH METROPLEX

CITY           SKY/WX    TMP DP  RH WIND       PRES   REMARKS
DFW AIRPORT    PTSUNNY   48  36  63 N9        30.39S
FTW MEACHAM    CLOUDY    46  36  68 N12       30.41R
DAL-EXECUTIVE  CLOUDY    42  36  79 N8        30.38R WCI  37
GRAND PRAIRIE  CLOUDY    43  36  75 N9        30.42S WCI  37
ADDISON        PTSUNNY   45  37  76 NE6       30.40S
MESQUITE       CLOUDY    43  37  81 N7        30.39S WCI  39
LANCASTER      CLOUDY    42  36  79 N12       30.40S WCI  36
$$

NORTH CENTRAL TEXAS

CITY           SKY/WX    TMP DP  RH WIND       PRES   REMARKS
SHRMAN/DENISON CLEAR     48  38  69 CALM      30.40F
GAINESVILLE    PTSUNNY   46  35  65 N5        30.43R
BRIDGEPORT     CLEAR     48  37  67 NW8       30.45R
DENTON         PTSUNNY   46  37  71 N7        30.41S
WAXAHACHIE     CLOUDY    42  39  89 N10       30.40S WCI  36
GRANBURY       PTCLDY    51  36  55 NW16G23   30.42F
$$

WESTERN NORTH TEXAS

CITY           SKY/WX    TMP DP  RH WIND       PRES   REMARKS
WICHITA FALLS  SUNNY     48  29  47 NW9       30.43F
VERNON         CLEAR     48  23  37 N5        30.45F
BRECKENRIDGE   CLEAR     49  25  39 N10G21    30.43F
COMANCHE       SUNNY     50  26  39 N21       30.42S
$$

CENTRAL AND SOUTH CENTRAL TEXAS

CITY           SKY/WX    TMP DP  RH WIND       PRES   REMARKS
AUSTIN/BERGSTM MOSUNNY   58  25  28 N21G31    30.36F
WACO           MOSUNNY   52  35  52 NW21      30.37S
HILLSBORO      CLOUDY    47  37  69 N24       30.38S WCI  39
TEMPLE         MOSUNNY   54  34  46 N22G29    30.37R
KILLEEN-GRAY   MOSUNNY   52  29  40 N21G28    30.38R
FORT HOOD      MOSUNNY   53  29  38 N22       30.36S
GEORGETOWN     SUNNY     55  30  38 NW24G35   30.39R
LAGO VISTA     FAIR      55  24  30 N13G26    30.39S
SAN MARCOS     SUNNY     57  25  28 NW29G35   30.39F
NEW BRAUNFELS  MOSUNNY   60  22  23 NW21      30.39S
RANDOLPH AFB   SUNNY     58  22  24 N14G23    30.39F
SAN ANTONIO    SUNNY     58  22  24 NW20G29   30.41F
STINSON        SUNNY     60  20  21 NW10G24   30.39F
PLEASANTON     NOT AVBL
LA GRANGE      SUNNY     57  35  42 NW21G28   30.34F
GIDDINGS       CLEAR     55  33  43 NW16G24   30.39F
$$

EAST TEXAS

CITY           SKY/WX    TMP DP  RH WIND       PRES   REMARKS
PARIS          SUNNY     52  25  35 N8        30.37F
CLARKSVILLE    NOT AVBL
TYLER          PTSUNNY   47  37  68 NE13      30.35S
LONGVIEW       CLOUDY    43  40  89 CALM      30.35S
PALESTINE      PTCLDY    48  36  62 CALM      30.35R
NACOGDOCHES    CLOUDY    46  37  71 E3        30.33S
$$

TEXAS HILL COUNTRY AND EDWARDS PLATEAU

CITY           SKY/WX    TMP DP  RH WIND       PRES   REMARKS
LLANO          CLEAR     55  23  28 N21       30.45F
HORSESHOE BAY  FAIR      55  25  31 N15G23    30.40F
KERRVILLE      SUNNY     54  19  26 NW21G26   30.42S
FREDERICKSBRG  SUNNY     52  19  27 NW22G30   30.40F
ROCKSPRINGS    CLEAR     50  21  32 N10G21    30.46F
HONDO          SUNNY     59  18  20 NW14G23   30.45F
UVALDE         CLEAR     58  19  22 N13       30.45F
DEL RIO        SUNNY     57  21  24 N13       30.47F
$$

SOUTHEAST TEXAS

CITY           SKY/WX    TMP DP  RH WIND       PRES   REMARKS
COLLEGE STN    SUNNY     54  36  50 NW17G25   30.33F
CALDWELL       CLEAR     54  32  43 NW21      30.37F
CROCKETT       PTCLDY    50  37  62 NE5       30.35S
BRENHAM        SUNNY     56  36  46 NW18G24   30.34F
HUNTSVILLE     SUNNY     53  33  46 NW8G17    30.30F
CONROE         SUNNY     54  33  45 NW7       30.31F
HOUSTON BUSH   MOSUNNY   56  33  42 NW10G23   30.31F
HOUSTON HOBBY  MOSUNNY   56  32  40 W16G25    30.30F
PERLAND        SUNNY     56  31  38 W14G21    30.32F
WHARTON        CLEAR     58  35  41 NW21      30.34F
$$

THE UPPER TEXAS COAST

CITY           SKY/WX    TMP DP  RH WIND       PRES   REMARKS
ORANGE         CLOUDY    50  38  62 E8        30.32F
PORT ARTHUR    PTSUNNY   54  44  69 E9        30.30F
GALVESTON      SUNNY     59  41  51 W12       30.29F
ANGLETON       SUNNY     57  36  45 NW14G28   30.32F
BAY CITY       CLEAR     58  37  45 NW22      30.33F
$$

TEXAS COASTAL BEND, RIO GRANDE PLAINS DEEP SOUTH TEXAS

CITY           SKY/WX    TMP DP  RH WIND       PRES   REMARKS
VICTORIA       SUNNY     60  31  33 NW22      30.36F
BEEVILLE       FAIR      64  29  27 NW20G25   30.40F
ROCKPORT       SUNNY     66  34  30 NW13G22   30.38F
PORT ARANSAS   CLEAR     64  30  27 NW16G22   30.37F
PORT LAVACA    CLEAR     60  36  40 N23G30    30.36F
CORPUS CHRISTI MOSUNNY   65  28  24 NW21      30.40F
KINGSVILLE NAS SUNNY     66  28  24 NW22G28   30.41F
COTULLA        SUNNY     64  20  18 N16G25    30.45F
LAREDO         SUNNY     63  23  21 NW15G21   30.47F
BROWNSVILLE    SUNNY     70  42  36 NW16G28   30.40F
PORT ISABEL    SUNNY     70  37  29 NW25G33   30.39F
HEBBRONVILLE   NOT AVBL
MCALLEN        SUNNY     73  23  15 NW21G26   30.43F
WESLACO        SUNNY     69  33  26 N16G25    30.41F
FALFURRIAS     CLEAR     66  21  18 NW17G23   30.42F
EDINBURG       CLEAR     71  20  14 NW16G24   30.43F
$$



USA.gov is the U.S. government's official web portal to all federal, state and local government web resources and services.